Regional Weather Roundup
Issued by NWS Northern Indiana

Home | Current Version | Previous Version | Text Only | Print | Product List | Glossary On
Versions: 1 2 3 4 5 6 7 8 9 10 11 12 13 14 15 16 17 18 19 20 21 22 23 24 25 26 27 28 29 30 31 32 33 34 35 36 37 38 39 40 41 42 43 44 45 46 47 48 49 50
000
ASUS43 KIWX 220010
RWRIWX

KIWX WEATHER ROUNDUP
NATIONAL WEATHER SERVICE NORTHERN INDIANA
700 PM EST SAT JAN 21 2017

NOTE: "FAIR" INDICATES FEW OR NO CLOUDS BELOW 12,000 FEET WITH NO
SIGNIFICANT WEATHER AND/OR OBSTRUCTIONS TO VISIBILITY.

* THESE STATIONS ARE NOT UNDER NWS QUALITY CONTROL. THEY ALSO MAY NOT
  REPORT WEATHER SUCH AS PRECIPITATION OR FOG.

INZ001>027-220100-
NORTHERN INDIANA

CITY           SKY/WX    TMP DP  RH WIND       PRES   REMARKS
GARY*          PTCLDY    54  46  76 SW3       29.54R
VALPARAISO     PTCLDY    54  49  83 SW5       29.55R
6HR MIN TEMP:  54; 6HR MAX TEMP:  62;

LAPORTE*       PTCLDY    51  48  89 S3        29.55R
6HR MIN TEMP:  50; 6HR MAX TEMP:  60;

KNOX*          PTCLDY    52  34  50 SW3       29.54R
SOUTH BEND     MOCLDY    52  46  80 SW3       29.56R
6HR MIN TEMP:  51; 6HR MAX TEMP:  61;

GOSHEN         CLEAR     52  47  83 S5        29.55R
6HR MIN TEMP:  52; 6HR MAX TEMP:  61;

ROCHESTER*     CLEAR     55  50  82 CALM      29.55S
WARSAW*        CLEAR     54  48  82 CALM      29.55R
FORT WAYNE     CLEAR     52  48  86 SE8       29.58R
6HR MIN TEMP:  52; 6HR MAX TEMP:  63;

PERU/GRISSOM   CLEAR     54  53  99 S6        29.55R
6HR MIN TEMP:  53; 6HR MAX TEMP:  64;

MARION*        CLEAR     54  52  94 S9        29.58S

$$
INZ028>050-220100-
CENTRAL INDIANA

CITY           SKY/WX    TMP DP  RH WIND       PRES   REMARKS
LAFAYETTE      CLEAR     55  49  80 SW3       29.55R
6HR MIN TEMP:  55; 6HR MAX TEMP:  63;

KOKOMO*        CLEAR     56  52  86 S12       29.57R
6HR MIN TEMP:  55; 6HR MAX TEMP:  64;

MUNCIE*        CLEAR     58  52  80 S6        29.59R
6HR MIN TEMP:  58; 6HR MAX TEMP:  65;

INDIANAPOLIS   PTCLDY    57  49  74 S8        29.58R
6HR MIN TEMP:  55; 6HR MAX TEMP:  66;


$$
MIZ043>046-050>051-056>058-064>065-071>073-077>080-220100-
SOUTHWEST LOWER MICHIGAN

CITY           SKY/WX    TMP DP  RH WIND       PRES   REMARKS
BATTLE CREEK   CLEAR     53  50  89 S9        29.56R
6HR MIN TEMP:  52; 6HR MAX TEMP:  60;

BENTON HARBOR  PTCLDY    56  48  74 S7        29.54R
6HR MIN TEMP:  56; 6HR MAX TEMP:  62;

COLDWATER*     CLEAR     53  51  95 SE6       29.56S
6HR MIN TEMP:  53; 6HR MAX TEMP:  60;

HILLSDALE*     CLEAR     50  48  93 SE7       29.57S
HOLLAND        PTCLDY    52  46  80 SW8       29.54R
6HR MIN TEMP:  52; 6HR MAX TEMP:  62;

GRAND RAPIDS   PTCLDY    49  45  86 S7        29.54R
6HR MIN TEMP:  49; 6HR MAX TEMP:  61;

KALAMAZOO      PTCLDY    53  47  79 S5        29.56R
6HR MIN TEMP:  52; 6HR MAX TEMP:  61;

STURGIS*       CLEAR     50  48  93 CALM      29.55R
6HR MIN TEMP:  49; 6HR MAX TEMP:  60;

THREE RIVERS*  FAIR      52  47  84 S5        29.56R
6HR MIN TEMP:  52; 6HR MAX TEMP:  60;


$$
OHZ001>008-015>018-024>025-220100-
NORTHWEST OHIO

CITY           SKY/WX    TMP DP  RH WIND       PRES   REMARKS
DEFIANCE       CLEAR     54  49  83 SE5       29.59S
6HR MIN TEMP:  54; 6HR MAX TEMP:  59;

FINDLAY        MOCLDY    55  49  80 SE9       29.61R
6HR MIN TEMP:  55; 6HR MAX TEMP:  61;

TOLEDO EXPRESS CLEAR     54  52  93 SE5       29.60R
6HR MIN TEMP:  53; 6HR MAX TEMP:  59;

TOLEDO METCALF PTCLDY    52  51  97 SE7       29.62R
6HR MIN TEMP:  52; 6HR MAX TEMP:  60;

LIMA           CLOUDY    54  51  90 S9        29.62R
6HR MIN TEMP:  53; 6HR MAX TEMP:  59;


$$
AND FOR LAKE MICHIGAN COASTAL AND OPEN LAKE BUOY OBSERVATIONS

STATION/POSITION TEMP    WIND        PRES    VSBY  WAVE
                 AIR SEA DIR/SP/G                  HT/PER
                 (F)     (DEG/KT/KT) (MB)    (MI)  (FT/S)
CALUMET HARBOR           200/  5/  7  999.6R
MICHIGAN CITY     58     180/  5/  5   N/A
BURNS HARBOR      55     210/  8/  9 1001.0R

$$
&&



USA.gov is the U.S. government's official web portal to all federal, state and local government web resources and services.